Regional Weather Roundup
Issued by NWS Little Rock, AR

Home | Current Version | Previous Version | Graphics & Text | Print | Product List | Glossary On
Versions: 1 2 3 4 5 6 7 8 9 10 11 12 13 14 15 16 17 18 19 20 21 22 23 24 25 26 27 28 29 30 31 32 33 34 35 36 37 38 39 40 41 42 43 44 45 46 47 48 49 50
000
ASUS44 KLZK 181505
RWRLZK

WEATHER ROUNDUP FOR ARKANSAS
NATIONAL WEATHER SERVICE LITTLE ROCK AR
900 AM CST WED JAN 18 2017

NOTE: "FAIR" INDICATES FEW OR NO CLOUDS BELOW 12,000 FEET WITH NO
SIGNIFICANT WEATHER AND/OR OBSTRUCTIONS TO VISIBILITY.

ARZ001-003-010-029-181600-
NORTHWEST ARKANSAS

CITY           SKY/WX    TMP DP  RH WIND       PRES   REMARKS
FAYETTEVILLE   CLOUDY    38  38 100 NE3       30.16S
FORT SMITH     CLOUDY    43  40  89 NE8       30.18S
HARRISON       FOG       37  37 100 SE6       30.19F VSB 1/4
BENTONVILLE    CLOUDY   N/A N/A N/A SE3       30.17R
ROGERS         CLOUDY    38  38 100 E3        30.17R
SILOAM SPGS    CLOUDY    39  36  87 E6        30.16R
HIGHFILL       CLOUDY    39  39 100 NE3       30.16R FOG
SPRINGDALE     CLOUDY    37  37 100 E8        30.17S FOG
$$

ARZ004-005-016-181600-
NORTH CENTRAL ARKANSAS

CITY           SKY/WX    TMP DP  RH WIND       PRES   REMARKS
BATESVILLE     CLOUDY    41  37  87 N3        30.26S
FLIPPIN        CLOUDY    39  34  81 E5        30.20F
MTN HOME       CLOUDY    37  37 100 E6        30.20F FOG
$$

ARZ040-041-181600-
WEST CENTRAL ARKANSAS

CITY           SKY/WX    TMP DP  RH WIND       PRES   REMARKS
MENA           CLOUDY    46  46 100 NE7       30.15S
MOUNT IDA      LGT RAIN  46  44  93 VRB3      30.12F FOG
$$

ARZ009-017-025-026-028-181600-
NORTHEAST ARKANSAS

CITY           SKY/WX    TMP DP  RH WIND       PRES   REMARKS
CORNING        CLOUDY    41  39  93 CALM      30.27S
JONESBORO      CLOUDY    43  40  89 NE5       30.25S
NEWPORT        CLOUDY    42  40  92 MISG      30.25S
WALNUT RIDGE   CLOUDY    43  37  81 NE6       30.26S
BLYTHEVILLE    CLOUDY    45  41  86 CALM      30.27R
$$

ARZ022-023-033-042-044-181600-
CENTRAL ARKANSAS

CITY           SKY/WX    TMP DP  RH WIND       PRES   REMARKS
LITTLE ROCK    LGT RAIN  43  43 100 E8        30.22S
N LITTLE ROCK    N/A     43  41  94 E7        30.24R
JACKSONVILLE   CLOUDY    44  41  91 NE6       30.22R
SEARCY         CLOUDY    43  41  93 NE8       30.24F
HOT SPRINGS    LGT RAIN  46  45  96 E8        30.18R
RUSSELLVILLE   CLOUDY    44  39  82 E8        30.18F
CLINTON        CLOUDY    43  39  87 CALM      30.22F
$$

ARZ036-181600-
EAST ARKANSAS

CITY           SKY/WX    TMP DP  RH WIND       PRES   REMARKS
WEST MEMPHIS   CLOUDY    46  42  86 NE9       30.22F
$$

ARZ050-053-066-070-073-181600-
SOUTHWEST ARKANSAS

CITY           SKY/WX    TMP DP  RH WIND       PRES   REMARKS
ARKADELPHIA    LGT RAIN  47  46  97 NE6       30.19S
CAMDEN         RAIN      48  46  93 E3        30.19R
TEXARKANA      LGT RAIN  51  51 100 CALM      30.16R
EL DORADO      HVY RAIN  49  48  97 NE12      30.16S FOG
DE QUEEN       CLOUDY    49  49 100 VRB6      30.14R
$$

ARZ056-057-069-181600-
SOUTHEAST ARKANSAS

CITY           SKY/WX    TMP DP  RH WIND       PRES   REMARKS
PINE BLUFF     LGT RAIN  47  44  90 NE9       30.21F
STUTTGART      CLOUDY    45  37  76 NE9       30.23F
MONTICELLO     LGT RAIN  50  48  93 NE12      30.20R

$$





USA.gov is the U.S. government's official web portal to all federal, state and local government web resources and services.